Time,TemperatureF,DewpointF,PressureIn,WindDirection,WindDirectionDegrees,WindSpeedMPH,WindSpeedGustMPH,Humidity,HourlyPrecipIn,Conditions,Clouds,dailyrainin,SoftwareType,DateUTC
2013-07-06 00:10:00,81.5,59.3,29.69,SE,132,9.0,9.0,47,0.00,,,0.00,Wunderground v.1.15,2013-07-06 05:10:00,
2013-07-06 00:20:00,81.4,59.2,29.70,SE,131,8.0,10.0,47,0.00,,,0.00,Wunderground v.1.15,2013-07-06 05:20:00,
2013-07-06 00:30:00,81.3,59.1,29.70,SE,124,8.0,8.0,47,0.00,,,0.00,Wunderground v.1.15,2013-07-06 05:30:00,
2013-07-06 00:40:00,80.9,58.8,29.71,SE,144,4.0,5.0,47,0.00,,,0.00,Wunderground v.1.15,2013-07-06 05:40:00,
2013-07-06 00:50:00,80.5,59.0,29.72,SE,136,4.0,5.0,48,0.00,,,0.00,Wunderground v.1.15,2013-07-06 05:50:00,
2013-07-06 01:00:00,79.5,60.9,29.72,SE,124,5.0,5.0,53,0.00,,,0.01,Wunderground v.1.15,2013-07-06 06:00:00,
2013-07-06 01:10:00,77.0,61.6,29.73,SE,134,5.0,5.0,59,0.14,,,0.03,Wunderground v.1.15,2013-07-06 06:10:00,
2013-07-06 01:20:00,75.5,62.0,29.73,SSE,155,4.0,4.0,63,0.04,,,0.03,Wunderground v.1.15,2013-07-06 06:20:00,
2013-07-06 01:30:00,75.0,62.4,29.72,SSE,155,6.0,8.0,65,0.00,,,0.03,Wunderground v.1.15,2013-07-06 06:30:00,
2013-07-06 01:40:00,75.1,62.5,29.71,SE,127,8.0,15.0,65,0.00,,,0.03,Wunderground v.1.15,2013-07-06 06:40:00,
2013-07-06 01:50:00,75.2,61.7,29.70,South,180,10.0,11.0,63,0.00,,,0.03,Wunderground v.1.15,2013-07-06 06:50:00,
2013-07-06 02:00:00,75.6,61.7,29.70,SSE,158,11.0,11.0,62,0.00,,,0.03,Wunderground v.1.15,2013-07-06 07:00:00,
2013-07-06 02:10:00,75.8,62.3,29.70,SE,138,11.0,11.0,63,0.00,,,0.03,Wunderground v.1.15,2013-07-06 07:10:00,
2013-07-06 02:20:00,76.1,61.7,29.71,South,170,10.0,10.0,61,0.00,,,0.03,Wunderground v.1.15,2013-07-06 07:20:00,
2013-07-06 02:30:00,75.6,62.1,29.71,SSE,165,9.0,9.0,63,0.00,,,0.03,Wunderground v.1.15,2013-07-06 07:30:00,
2013-07-06 02:40:00,75.1,62.5,29.71,SE,146,7.0,7.0,65,0.00,,,0.03,Wunderground v.1.15,2013-07-06 07:40:00,
2013-07-06 02:50:00,74.4,63.1,29.72,South,172,6.0,6.0,68,0.00,,,0.03,Wunderground v.1.15,2013-07-06 07:50:00,
2013-07-06 03:00:00,73.8,63.0,29.71,SSW,194,5.0,6.0,69,0.00,,,0.03,Wunderground v.1.15,2013-07-06 08:00:00,
2013-07-06 03:10:00,73.5,63.1,29.71,SSE,158,6.0,6.0,70,0.00,,,0.03,Wunderground v.1.15,2013-07-06 08:10:00,
2013-07-06 03:20:00,74.1,62.4,29.71,SSE,159,7.0,7.0,67,0.00,,,0.03,Wunderground v.1.15,2013-07-06 08:20:00,
2013-07-06 03:30:00,74.1,62.9,29.70,South,179,7.0,7.0,68,0.00,,,0.03,Wunderground v.1.15,2013-07-06 08:30:00,
2013-07-06 03:40:00,74.3,63.1,29.70,ESE,111,7.0,7.0,68,0.00,,,0.03,Wunderground v.1.15,2013-07-06 08:40:00,
2013-07-06 03:50:00,74.3,63.1,29.70,SSE,160,6.0,6.0,68,0.00,,,0.03,Wunderground v.1.15,2013-07-06 08:50:00,
2013-07-06 04:00:00,74.1,63.3,29.70,SSE,164,6.0,7.0,69,0.00,,,0.03,Wunderground v.1.15,2013-07-06 09:00:00,
2013-07-06 04:10:00,74.3,63.1,29.70,South,170,7.0,7.0,68,0.00,,,0.03,Wunderground v.1.15,2013-07-06 09:10:00,
2013-07-06 04:20:00,74.4,63.1,29.69,SE,146,7.0,8.0,68,0.00,,,0.03,Wunderground v.1.15,2013-07-06 09:20:00,
2013-07-06 04:30:00,74.5,63.2,29.69,SSE,148,7.0,7.0,68,0.00,,,0.03,Wunderground v.1.15,2013-07-06 09:30:00,
2013-07-06 04:40:00,74.7,63.4,29.69,SSE,164,6.0,6.0,68,0.00,,,0.03,Wunderground v.1.15,2013-07-06 09:40:00,
2013-07-06 04:50:00,74.6,63.3,29.69,South,186,6.0,8.0,68,0.00,,,0.03,Wunderground v.1.15,2013-07-06 09:50:00,
2013-07-06 05:10:00,75.1,63.0,29.68,South,170,7.0,9.0,66,0.00,,,0.03,Wunderground v.1.15,2013-07-06 10:10:00,
2013-07-06 05:20:00,75.3,63.2,29.68,South,187,7.0,7.0,66,0.00,,,0.03,Wunderground v.1.15,2013-07-06 10:20:00,
2013-07-06 05:30:00,75.4,62.8,29.68,SSE,156,8.0,10.0,65,0.00,,,0.03,Wunderground v.1.15,2013-07-06 10:30:00,
2013-07-06 05:40:00,75.5,62.9,29.68,SE,127,7.0,8.0,65,0.00,,,0.03,Wunderground v.1.15,2013-07-06 10:40:00,
2013-07-06 05:50:00,75.7,62.7,29.69,SSE,166,7.0,7.0,64,0.00,,,0.03,Wunderground v.1.15,2013-07-06 10:50:00,
2013-07-06 06:00:00,75.8,62.8,29.68,SSE,160,7.0,8.0,64,0.00,,,0.03,Wunderground v.1.15,2013-07-06 11:00:00,
2013-07-06 06:10:00,75.7,62.7,29.69,South,183,7.0,7.0,64,0.00,,,0.03,Wunderground v.1.15,2013-07-06 11:10:00,
2013-07-06 06:20:00,75.5,62.5,29.69,SSE,151,6.0,6.0,64,0.00,,,0.03,Wunderground v.1.15,2013-07-06 11:20:00,
2013-07-06 06:30:00,75.3,62.3,29.68,SSE,153,6.0,8.0,64,0.00,,,0.03,Wunderground v.1.15,2013-07-06 11:30:00,
2013-07-06 06:40:00,75.5,62.0,29.68,SSE,156,8.0,8.0,63,0.00,,,0.03,Wunderground v.1.15,2013-07-06 11:40:00,
2013-07-06 06:50:00,75.7,61.8,29.68,SSE,156,8.0,10.0,62,0.00,,,0.03,Wunderground v.1.15,2013-07-06 11:50:00,
2013-07-06 07:00:00,75.9,61.9,29.68,SE,131,10.0,10.0,62,0.00,,,0.03,Wunderground v.1.15,2013-07-06 12:00:00,
2013-07-06 07:10:00,75.8,61.8,29.67,SE,145,9.0,9.0,62,0.00,,,0.03,Wunderground v.1.15,2013-07-06 12:10:00,
2013-07-06 07:20:00,75.8,61.4,29.67,SSE,167,10.0,11.0,61,0.00,,,0.03,Wunderground v.1.15,2013-07-06 12:20:00,
2013-07-06 07:30:00,76.0,61.6,29.67,SE,141,10.0,16.0,61,0.00,,,0.03,Wunderground v.1.15,2013-07-06 12:30:00,
2013-07-06 07:40:00,76.2,61.3,29.68,South,170,11.0,13.0,60,0.00,,,0.03,Wunderground v.1.15,2013-07-06 12:40:00,
2013-07-06 07:50:00,76.8,61.4,29.69,SSE,153,9.0,9.0,59,0.00,,,0.03,Wunderground v.1.15,2013-07-06 12:50:00,
2013-07-06 08:00:00,77.2,61.3,29.69,SE,126,7.0,9.0,58,0.00,,,0.03,Wunderground v.1.15,2013-07-06 13:00:00,
2013-07-06 08:10:00,77.4,61.0,29.68,SSE,158,5.0,7.0,57,0.00,,,0.03,Wunderground v.1.15,2013-07-06 13:10:00,
2013-07-06 08:20:00,77.9,60.9,29.68,SSE,151,8.0,8.0,56,0.00,,,0.03,Wunderground v.1.15,2013-07-06 13:20:00,
2013-07-06 08:30:00,79.0,61.5,29.67,SE,137,9.0,9.0,55,0.00,,,0.03,Wunderground v.1.15,2013-07-06 13:30:00,
2013-07-06 08:40:00,80.3,61.1,29.68,SSW,208,9.0,11.0,52,0.00,,,0.03,Wunderground v.1.15,2013-07-06 13:40:00,
2013-07-06 08:50:00,81.4,61.0,29.68,SSE,149,10.0,13.0,50,0.00,,,0.03,Wunderground v.1.15,2013-07-06 13:50:00,
2013-07-06 09:00:00,81.8,60.8,29.68,SSW,204,11.0,11.0,49,0.00,,,0.03,Wunderground v.1.15,2013-07-06 14:00:00,
2013-07-06 09:10:00,82.2,60.6,29.68,South,181,11.0,11.0,48,0.00,,,0.03,Wunderground v.1.15,2013-07-06 14:10:00,
2013-07-06 09:20:00,82.3,61.2,29.67,SSE,166,14.0,14.0,49,0.00,,,0.03,Wunderground v.1.15,2013-07-06 14:20:00,
2013-07-06 09:30:00,82.4,60.7,29.67,South,175,15.0,20.0,48,0.00,,,0.03,Wunderground v.1.15,2013-07-06 14:30:00,
2013-07-06 09:40:00,82.6,61.5,29.67,South,187,15.0,15.0,49,0.00,,,0.03,Wunderground v.1.15,2013-07-06 14:40:00,
2013-07-06 09:50:00,83.2,61.5,29.66,South,186,13.0,13.0,48,0.00,,,0.03,Wunderground v.1.15,2013-07-06 14:50:00,
2013-07-06 10:00:00,83.8,60.2,29.66,South,172,15.0,15.0,45,0.00,,,0.03,Wunderground v.1.15,2013-07-06 15:00:00,
2013-07-06 10:10:00,84.3,60.0,29.66,SSW,203,17.0,18.0,44,0.00,,,0.03,Wunderground v.1.15,2013-07-06 15:10:00,
2013-07-06 10:20:00,84.6,60.3,29.67,SSW,200,15.0,20.0,44,0.00,,,0.03,Wunderground v.1.15,2013-07-06 15:20:00,
2013-07-06 10:30:00,84.6,59.6,29.66,SSE,150,17.0,21.0,43,0.00,,,0.03,Wunderground v.1.15,2013-07-06 15:30:00,
2013-07-06 10:40:00,84.7,59.7,29.66,SSE,168,15.0,15.0,43,0.00,,,0.03,Wunderground v.1.15,2013-07-06 15:40:00,
2013-07-06 10:50:00,85.5,61.7,29.66,SSE,166,15.0,15.0,45,0.00,,,0.03,Wunderground v.1.15,2013-07-06 15:50:00,
2013-07-06 11:10:00,85.9,60.1,29.66,SSE,158,15.0,15.0,42,0.00,,,0.03,Wunderground v.1.15,2013-07-06 16:10:00,
2013-07-06 11:20:00,86.5,60.7,29.66,South,179,15.0,15.0,42,0.00,,,0.03,Wunderground v.1.15,2013-07-06 16:20:00,
2013-07-06 11:40:00,87.5,60.9,29.66,South,189,14.0,14.0,41,0.00,,,0.03,Wunderground v.1.15,2013-07-06 16:40:00,
2013-07-06 11:50:00,87.4,61.5,29.65,South,170,16.0,16.0,42,0.00,,,0.03,Wunderground v.1.15,2013-07-06 16:50:00,
2013-07-06 12:00:00,87.5,61.6,29.65,South,191,14.0,16.0,42,0.00,,,0.03,Wunderground v.1.15,2013-07-06 17:00:00,
2013-07-06 12:10:00,88.1,62.1,29.66,South,191,15.0,15.0,42,0.00,,,0.03,Wunderground v.1.15,2013-07-06 17:10:00,
2013-07-06 12:20:00,88.6,61.9,29.65,SW,231,14.0,14.0,41,0.00,,,0.03,Wunderground v.1.15,2013-07-06 17:20:00,
2013-07-06 12:30:00,88.9,62.2,29.65,South,191,14.0,16.0,41,0.00,,,0.03,Wunderground v.1.15,2013-07-06 17:30:00,
2013-07-06 12:40:00,89.2,62.4,29.65,SSE,150,14.0,16.0,41,0.00,,,0.03,Wunderground v.1.15,2013-07-06 17:40:00,
2013-07-06 12:50:00,89.9,63.0,29.65,South,188,14.0,14.0,41,0.00,,,0.03,Wunderground v.1.15,2013-07-06 17:50:00,
2013-07-06 13:00:00,89.9,62.3,29.64,SSE,166,16.0,16.0,40,0.00,,,0.03,Wunderground v.1.15,2013-07-06 18:00:00,
2013-07-06 13:10:00,90.5,62.2,29.64,SSW,210,15.0,15.0,39,0.00,,,0.03,Wunderground v.1.15,2013-07-06 18:10:00,
2013-07-06 14:00:00,92.1,62.1,29.64,South,186,14.0,17.0,37,0.00,,,0.03,Wunderground v.1.15,2013-07-06 19:00:00,
2013-07-06 14:30:00,92.3,62.3,29.64,SSE,149,13.0,13.0,37,0.00,,,0.03,Wunderground v.1.15,2013-07-06 19:30:00,
2013-07-06 14:40:00,92.9,63.6,29.63,South,176,12.0,12.0,38,0.00,,,0.03,Wunderground v.1.15,2013-07-06 19:40:00,
2013-07-06 15:00:00,93.6,62.6,29.63,SSE,162,13.0,13.0,36,0.00,,,0.03,Wunderground v.1.15,2013-07-06 20:00:00,
2013-07-06 15:10:00,93.6,62.6,29.63,SSE,150,12.0,12.0,36,0.00,,,0.03,Wunderground v.1.15,2013-07-06 20:10:00,
2013-07-06 15:30:00,94.1,63.9,29.62,SE,142,14.0,15.0,37,0.00,,,0.03,Wunderground v.1.15,2013-07-06 20:30:00,
2013-07-06 15:50:00,94.5,62.6,29.62,SE,146,14.0,14.0,35,0.00,,,0.03,Wunderground v.1.15,2013-07-06 20:50:00,
2013-07-06 16:00:00,95.1,62.3,29.61,South,174,13.0,13.0,34,0.00,,,0.03,Wunderground v.1.15,2013-07-06 21:00:00,
2013-07-06 16:10:00,95.2,62.4,29.61,South,172,14.0,14.0,34,0.00,,,0.03,Wunderground v.1.15,2013-07-06 21:10:00,
2013-07-06 16:20:00,95.4,62.6,29.61,SSE,162,14.0,15.0,34,0.00,,,0.03,Wunderground v.1.15,2013-07-06 21:20:00,
2013-07-06 16:30:00,95.3,62.5,29.61,SSE,158,13.0,13.0,34,0.00,,,0.03,Wunderground v.1.15,2013-07-06 21:30:00,
2013-07-06 16:40:00,95.7,63.7,29.61,SSE,153,13.0,15.0,35,0.00,,,0.03,Wunderground v.1.15,2013-07-06 21:40:00,
2013-07-06 17:00:00,94.5,64.2,29.61,SE,138,13.0,15.0,37,0.00,,,0.03,Wunderground v.1.15,2013-07-06 22:00:00,
2013-07-06 17:10:00,94.5,64.2,29.60,SSW,203,13.0,28.0,37,0.00,,,0.03,Wunderground v.1.15,2013-07-06 22:10:00,
2013-07-06 17:20:00,94.3,64.8,29.60,SSE,148,12.0,12.0,38,0.00,,,0.03,Wunderground v.1.15,2013-07-06 22:20:00,
2013-07-06 17:30:00,93.9,64.4,29.60,SSE,149,12.0,12.0,38,0.00,,,0.03,Wunderground v.1.15,2013-07-06 22:30:00,
2013-07-06 17:40:00,93.5,63.3,29.59,SE,129,12.0,14.0,37,0.00,,,0.03,Wunderground v.1.15,2013-07-06 22:40:00,
2013-07-06 17:50:00,93.2,63.8,29.59,ESE,120,12.0,22.0,38,0.00,,,0.03,Wunderground v.1.15,2013-07-06 22:50:00,
2013-07-06 18:10:00,93.0,64.4,29.59,ESE,117,12.0,21.0,39,0.00,,,0.03,Wunderground v.1.15,2013-07-06 23:10:00,
2013-07-06 18:20:00,93.2,64.6,29.58,SE,144,10.0,11.0,39,0.00,,,0.03,Wunderground v.1.15,2013-07-06 23:20:00,
2013-07-06 18:40:00,94.1,64.6,29.58,SSE,148,11.0,11.0,38,0.00,,,0.03,Wunderground v.1.15,2013-07-06 23:40:00,
2013-07-06 19:00:00,94.4,59.1,29.59,SE,125,15.0,17.0,31,0.00,,,0.03,Wunderground v.1.15,2013-07-07 00:00:00,
2013-07-06 19:10:00,94.2,58.9,29.59,SSE,155,14.0,14.0,31,0.00,,,0.03,Wunderground v.1.15,2013-07-07 00:10:00,
2013-07-06 19:20:00,93.2,59.0,29.59,South,169,13.0,15.0,32,0.00,,,0.03,Wunderground v.1.15,2013-07-07 00:20:00,
2013-07-06 19:40:00,92.1,58.9,29.59,South,184,12.0,12.0,33,0.00,,,0.03,Wunderground v.1.15,2013-07-07 00:40:00,
2013-07-06 19:50:00,91.8,58.6,29.60,SE,133,10.0,15.0,33,0.00,,,0.03,Wunderground v.1.15,2013-07-07 00:50:00,
2013-07-06 20:20:00,87.0,66.1,29.61,SE,133,6.0,9.0,50,0.00,,,0.03,Wunderground v.1.15,2013-07-07 01:20:00,
2013-07-06 20:30:00,86.1,66.4,29.61,SE,142,6.0,6.0,52,0.00,,,0.03,Wunderground v.1.15,2013-07-07 01:30:00,
2013-07-06 20:40:00,85.4,66.3,29.61,SSW,205,6.0,8.0,53,0.00,,,0.03,Wunderground v.1.15,2013-07-07 01:40:00,
2013-07-06 20:50:00,84.8,66.3,29.62,SSE,154,7.0,7.0,54,0.00,,,0.03,Wunderground v.1.15,2013-07-07 01:50:00,
2013-07-06 21:10:00,84.1,66.7,29.62,SE,145,7.0,7.0,56,0.00,,,0.03,Wunderground v.1.15,2013-07-07 02:10:00,
2013-07-06 21:20:00,83.7,66.8,29.62,SE,131,8.0,8.0,57,0.00,,,0.03,Wunderground v.1.15,2013-07-07 02:20:00,
2013-07-06 21:30:00,83.6,66.8,29.63,SSE,163,8.0,10.0,57,0.00,,,0.03,Wunderground v.1.15,2013-07-07 02:30:00,
2013-07-06 21:40:00,83.5,66.7,29.63,SSE,156,9.0,9.0,57,0.00,,,0.03,Wunderground v.1.15,2013-07-07 02:40:00,
2013-07-06 22:10:00,81.4,67.6,29.66,SE,139,6.0,10.0,63,0.00,,,0.03,Wunderground v.1.15,2013-07-07 03:10:00,
2013-07-06 22:30:00,80.8,67.5,29.67,SSE,163,7.0,8.0,64,0.00,,,0.03,Wunderground v.1.15,2013-07-07 03:30:00,
2013-07-06 22:40:00,80.6,67.7,29.67,ESE,122,7.0,7.0,65,0.00,,,0.03,Wunderground v.1.15,2013-07-07 03:40:00,
2013-07-06 23:00:00,79.7,67.3,29.68,ESE,104,6.0,7.0,66,0.00,,,0.03,Wunderground v.1.15,2013-07-07 04:00:00,
2013-07-06 23:10:00,79.4,67.5,29.68,SE,127,6.0,6.0,67,0.00,,,0.03,Wunderground v.1.15,2013-07-07 04:10:00,
2013-07-06 23:20:00,79.0,67.5,29.68,SSE,166,6.0,6.0,68,0.00,,,0.03,Wunderground v.1.15,2013-07-07 04:20:00,
2013-07-06 23:30:00,78.6,67.2,29.68,SSE,161,5.0,5.0,68,0.00,,,0.03,Wunderground v.1.15,2013-07-07 04:30:00,
2013-07-06 23:40:00,78.3,67.3,29.69,SE,146,5.0,5.0,69,0.00,,,0.03,Wunderground v.1.15,2013-07-07 04:40:00,
2013-07-06 23:50:00,78.1,67.1,29.69,SE,137,6.0,6.0,69,0.00,,,0.03,Wunderground v.1.15,2013-07-07 04:50:00,